{"data":{"norad_id":52662,"intl_designator":"2022-053G","name":"STARLINK-4044","alt_names":[],"object_type":"PAYLOAD","status":"ACTIVE","operator":null,"country":"US","launch_date":"2022-05-18","launch_site_code":"AFETR","launch_vehicle":null,"mission":null,"orbit_class":"UNKNOWN","rcs_meters":null,"size_class":null,"mass_kg":null,"dimensions":null,"purposes":["comms"],"wikipedia_slug":null,"has_3d_model":false,"image_url":null,"decayed_at":null,"tle_current":{"epoch":"2026-05-25T01:13:53.120928Z","epoch_age_seconds":81103,"freshness":"FRESH","line1":"1 52662U 22053G   26145.05130927 -.00000050  00000+0  14966-4 0  9993","line2":"2 52662  53.2122 171.3214 0001142  73.5036 286.6081 15.08839256222575","mean_motion":15.08839256,"eccentricity":0.0001142,"inclination_deg":53.2122,"raan_deg":171.3214,"arg_perigee_deg":73.5036,"mean_anomaly_deg":286.6081,"bstar":1.4966e-5,"rev_number":22257,"period_min":95.437601737478,"perigee_km":538.95564087527,"apogee_km":540.53568527552,"semimajor_km":6917.8826630754,"source":"CELESTRAK","updated_at":"2026-05-25T13:38:17.209958Z"}}}